START_TIME,STEP,MOV.,AL01,t_acc.,AL02,t_acc.,E37,t_acc.,H21,t_acc.
1981-08-28 21:00:34.980 ,2,0,0.,24.0,0.,24.0,0.,24.0,0.,24.0
1981-08-28 21:00:58.980 ,1,1,0.,24.0,0.,24.0,0.,24.0,0.,24.0
1981-08-28 21:01:22.980 ,1,0,0.,24.0,0.,24.0,0.,24.0,0.,24.0
1981-08-28 21:01:46.980 ,0,1,0.,24.0,0.,24.0,0.,24.0,0.,24.0
1981-08-28 21:02:10.980 ,0,0,0.,24.0,0.,24.0,0.,24.0,0.,24.0
1981-08-28 21:02:34.980 ,0,1,0.,24.0,0.,24.0,0.,24.0,0.,24.0
1981-08-28 21:02:58.980 ,0,0,0.,24.0,0.,24.0,0.,24.0,0.,24.0
1981-08-28 21:03:22.980 ,1,1,0.,24.0,0.,24.0,0.,24.0,0.,24.0
1981-08-28 21:03:46.980 ,1,0,0.,24.0,0.,24.0,1.,24.0,0.,24.0
1981-08-28 21:04:10.980 ,2,1,0.,24.0,0.,24.0,1.,24.0,0.,24.0
1981-08-28 21:04:34.980 ,2,0,0.,24.0,0.,24.0,1.,24.0,0.,24.0
1981-08-28 21:04:58.980 ,3,1,0.,24.0,0.,24.0,0.,24.0,0.,24.0
1981-08-28 21:05:22.980 ,3,0,0.,24.0,0.,24.0,2.,24.0,0.,24.0
1981-08-28 21:05:46.980 ,4,1,0.,24.0,0.,24.0,0.,24.0,0.,24.0
1981-08-28 21:06:10.980 ,4,0,0.,24.0,0.,24.0,1.,24.0,0.,24.0
1981-08-28 21:06:34.980 ,5,1,0.,24.0,0.,24.0,0.,24.0,0.,24.0
1981-08-28 21:06:58.980 ,5,0,1.,24.0,0.,24.0,0.,24.0,0.,24.0
1981-08-28 21:07:22.980 ,6,1,0.,24.0,0.,24.0,0.,24.0,0.,24.0
1981-08-28 21:07:46.980 ,6,0,0.,24.0,0.,24.0,0.,24.0,0.,24.0
1981-08-28 21:08:10.980 ,7,1,9.,24.0,0.,24.0,0.,24.0,0.,24.0
1981-08-28 21:08:34.980 ,7,0,35.,24.0,0.,24.0,0.,24.0,0.,24.0
1981-08-28 21:08:58.980 ,7,1,32.,24.0,0.,24.0,0.,24.0,0.,24.0
1981-08-28 21:09:22.980 ,6,1,22.,24.0,0.,24.0,2.,24.0,0.,24.0
1981-08-28 21:09:46.980 ,5,1,0.,24.0,0.,24.0,0.,24.0,0.,24.0
1981-08-28 21:10:10.980 ,4,1,0.,24.0,0.,24.0,1.,24.0,0.,24.0
1981-08-28 21:10:34.970 ,3,1,0.,24.0,0.,24.0,1.,24.0,0.,24.0
1981-08-28 21:10:58.970 ,2,1,0.,24.0,0.,24.0,0.,24.0,0.,24.0
1981-08-28 21:11:22.970 ,1,1,0.,24.0,0.,24.0,0.,24.0,0.,24.0
1981-08-28 21:11:46.970 ,0,1,0.,24.0,0.,24.0,1.,24.0,0.,24.0
1981-08-28 21:12:10.970 ,0,1,0.,24.0,0.,24.0,1.,24.0,0.,24.0
1981-08-28 21:12:34.970 ,1,1,1.,24.0,0.,24.0,0.,24.0,0.,24.0
1981-08-28 21:12:58.970 ,2,1,0.,24.0,0.,24.0,0.,24.0,0.,24.0
1981-08-28 21:13:22.970 ,3,1,0.,24.0,0.,24.0,0.,24.0,0.,24.0
1981-08-28 21:13:46.970 ,4,1,0.,24.0,0.,24.0,0.,24.0,0.,24.0
1981-08-28 21:14:10.970 ,5,1,0.,24.0,0.,24.0,0.,24.0,0.,24.0
1981-08-28 21:14:34.970 ,6,1,0.,24.0,0.,24.0,0.,24.0,0.,24.0
1981-08-28 21:14:58.970 ,7,1,5.,24.0,0.,24.0,1.,24.0,0.,24.0
1981-08-28 21:15:22.970 ,7,1,30.,24.0,0.,24.0,2.,24.0,0.,24.0
1981-08-28 21:15:46.970 ,7,0,27.,24.0,0.,24.0,1.,24.0,0.,24.0
1981-08-28 21:16:10.970 ,6,1,20.,24.0,0.,24.0,0.,24.0,0.,24.0
1981-08-28 21:16:34.970 ,6,0,0.,24.0,0.,24.0,0.,24.0,0.,24.0
1981-08-28 21:16:58.970 ,5,1,0.,24.0,0.,24.0,0.,24.0,0.,24.0
1981-08-28 21:17:22.980 ,5,0,1.,24.0,0.,24.0,0.,24.0,0.,24.0
1981-08-28 21:17:46.980 ,4,1,0.,24.0,0.,24.0,0.,24.0,0.,24.0
1981-08-28 21:18:10.980 ,4,0,0.,24.0,0.,24.0,0.,24.0,0.,24.0
1981-08-28 21:18:34.980 ,3,1,1.,24.0,0.,24.0,1.,24.0,0.,24.0
1981-08-28 21:18:58.980 ,3,0,0.,24.0,0.,24.0,0.,24.0,0.,24.0
1981-08-28 21:19:22.980 ,2,1,0.,24.0,0.,24.0,1.,24.0,0.,24.0
1981-08-28 21:19:46.980 ,2,0,0.,24.0,0.,24.0,0.,24.0,0.,24.0
1981-08-28 21:20:10.980 ,1,1,0.,24.0,0.,24.0,0.,24.0,0.,24.0
1981-08-28 21:20:34.980 ,1,0,0.,24.0,1.,24.0,0.,24.0,0.,24.0
1981-08-28 21:20:58.980 ,0,1,0.,24.0,0.,24.0,0.,24.0,0.,24.0
1981-08-28 21:21:22.980 ,0,0,0.,24.0,0.,24.0,0.,24.0,0.,24.0
1981-08-28 21:21:46.980 ,0,1,0.,24.0,0.,24.0,1.,24.0,0.,24.0
1981-08-28 21:22:10.980 ,0,0,0.,24.0,0.,24.0,1.,24.0,0.,24.0
1981-08-28 21:22:34.980 ,1,1,0.,24.0,0.,24.0,0.,24.0,0.,24.0
1981-08-28 21:22:58.980 ,1,0,0.,24.0,0.,24.0,0.,24.0,0.,24.0
1981-08-28 21:23:22.980 ,2,1,0.,24.0,0.,24.0,1.,24.0,0.,24.0
1981-08-28 21:23:46.980 ,2,0,0.,24.0,0.,24.0,1.,24.0,0.,24.0
1981-08-28 21:24:10.980 ,3,1,0.,24.0,0.,24.0,0.,24.0,0.,24.0
1981-08-28 21:24:34.980 ,3,0,0.,24.0,0.,24.0,0.,24.0,0.,24.0
1981-08-28 21:24:58.980 ,4,1,0.,24.0,0.,24.0,0.,24.0,0.,24.0
1981-08-28 21:25:22.980 ,4,0,0.,24.0,0.,24.0,0.,24.0,0.,24.0
1981-08-28 21:25:46.980 ,5,1,0.,24.0,0.,24.0,3.,24.0,0.,24.0
1981-08-28 21:26:10.980 ,5,0,0.,24.0,0.,24.0,0.,24.0,0.,24.0
1981-08-28 21:26:34.970 ,6,1,0.,24.0,0.,24.0,0.,24.0,0.,24.0
1981-08-28 21:26:58.970 ,6,0,0.,24.0,0.,24.0,3.,24.0,0.,24.0
1981-08-28 21:27:22.970 ,7,1,5.,24.0,0.,24.0,0.,24.0,0.,24.0
1981-08-28 21:27:46.970 ,7,0,26.,24.0,0.,24.0,0.,24.0,0.,24.0
1981-08-28 21:28:10.970 ,7,1,32.,24.0,0.,24.0,0.,24.0,0.,24.0
1981-08-28 21:28:34.970 ,6,1,21.,24.0,0.,24.0,0.,24.0,0.,24.0
1981-08-28 21:28:58.970 ,5,1,0.,24.0,0.,24.0,0.,24.0,0.,24.0
1981-08-28 21:29:22.970 ,4,1,0.,24.0,0.,24.0,1.,24.0,0.,24.0
1981-08-28 21:29:46.970 ,3,1,0.,24.0,0.,24.0,0.,24.0,0.,24.0
1981-08-28 21:30:10.970 ,2,1,0.,24.0,0.,24.0,0.,24.0,0.,24.0
1981-08-28 21:30:34.970 ,1,1,0.,24.0,0.,24.0,0.,24.0,0.,24.0
1981-08-28 21:30:58.970 ,0,1,0.,24.0,0.,24.0,0.,24.0,0.,24.0
1981-08-28 21:31:22.970 ,0,1,0.,24.0,0.,24.0,0.,24.0,0.,24.0
1981-08-28 21:31:46.970 ,1,1,0.,24.0,0.,24.0,0.,24.0,0.,24.0
1981-08-28 21:32:10.970 ,2,1,0.,24.0,0.,24.0,0.,24.0,0.,24.0
1981-08-28 21:32:34.970 ,3,1,0.,24.0,0.,24.0,1.,24.0,0.,24.0
1981-08-28 21:32:58.970 ,4,1,0.,24.0,0.,24.0,0.,24.0,0.,24.0
1981-08-28 21:33:22.970 ,5,1,0.,24.0,0.,24.0,0.,24.0,0.,24.0
1981-08-28 21:33:46.970 ,6,1,0.,24.0,0.,24.0,0.,24.0,0.,24.0
1981-08-28 21:34:10.970 ,7,1,8.,24.0,0.,24.0,0.,24.0,0.,24.0
1981-08-28 21:34:34.970 ,7,1,27.,24.0,0.,24.0,0.,24.0,0.,24.0
1981-08-28 21:34:58.970 ,7,0,35.,24.0,0.,24.0,0.,24.0,0.,24.0
1981-08-28 21:35:22.970 ,6,1,15.,24.0,0.,24.0,0.,24.0,0.,24.0
1981-08-28 21:35:46.970 ,6,0,0.,24.0,0.,24.0,2.,24.0,0.,24.0
1981-08-28 21:36:10.970 ,5,1,0.,24.0,0.,24.0,0.,24.0,0.,24.0
1981-08-28 21:36:34.970 ,5,0,0.,24.0,0.,24.0,0.,24.0,0.,24.0
1981-08-28 21:36:58.970 ,4,1,0.,24.0,0.,24.0,0.,24.0,0.,24.0
1981-08-28 21:37:22.970 ,4,0,0.,24.0,0.,24.0,0.,24.0,0.,24.0
1981-08-28 21:37:46.970 ,3,1,0.,24.0,0.,24.0,1.,24.0,0.,24.0
1981-08-28 21:38:10.970 ,3,0,0.,24.0,0.,24.0,1.,24.0,0.,24.0
1981-08-28 21:38:34.970 ,2,1,0.,24.0,0.,24.0,1.,24.0,0.,24.0
1981-08-28 21:38:58.970 ,2,0,0.,24.0,0.,24.0,0.,24.0,0.,24.0
1981-08-28 21:39:22.970 ,1,1,1.,24.0,0.,24.0,0.,24.0,0.,24.0
1981-08-28 21:39:46.970 ,1,0,0.,24.0,0.,24.0,0.,24.0,0.,24.0
1981-08-28 21:40:10.970 ,0,1,0.,24.0,0.,24.0,0.,24.0,0.,24.0
1981-08-28 21:40:34.970 ,0,0,0.,24.0,0.,24.0,0.,24.0,0.,24.0
1981-08-28 21:40:58.970 ,0,1,0.,24.0,0.,24.0,0.,24.0,0.,24.0
1981-08-28 21:41:22.970 ,0,0,0.,24.0,0.,24.0,0.,24.0,0.,24.0
1981-08-28 21:41:46.970 ,1,1,0.,24.0,0.,24.0,0.,24.0,0.,24.0
1981-08-28 21:42:10.970 ,1,0,0.,24.0,0.,24.0,0.,24.0,0.,24.0
1981-08-28 21:42:34.970 ,2,1,0.,24.0,0.,24.0,0.,24.0,0.,24.0
1981-08-28 21:42:58.970 ,2,0,0.,24.0,0.,24.0,1.,24.0,0.,24.0
1981-08-28 21:43:22.970 ,3,1,0.,24.0,0.,24.0,0.,24.0,0.,24.0
1981-08-28 21:43:46.970 ,3,0,0.,24.0,0.,24.0,1.,24.0,0.,24.0
1981-08-28 21:44:10.970 ,4,1,0.,24.0,0.,24.0,0.,24.0,0.,24.0
1981-08-28 21:44:34.970 ,4,0,0.,24.0,0.,24.0,0.,24.0,0.,24.0
1981-08-28 21:44:58.970 ,5,1,0.,24.0,0.,24.0,0.,24.0,0.,24.0
1981-08-28 21:45:22.970 ,5,0,0.,24.0,0.,24.0,0.,24.0,0.,24.0
1981-08-28 21:45:46.970 ,6,1,0.,24.0,0.,24.0,0.,24.0,0.,24.0
1981-08-28 21:46:10.970 ,6,0,0.,24.0,0.,24.0,0.,24.0,0.,24.0
1981-08-28 21:46:34.970 ,7,1,7.,24.0,0.,24.0,0.,24.0,0.,24.0
1981-08-28 21:46:58.970 ,7,0,28.,24.0,0.,24.0,0.,24.0,0.,24.0
1981-08-28 21:47:22.970 ,7,1,47.,24.0,0.,24.0,0.,24.0,0.,24.0
1981-08-28 21:47:46.970 ,6,1,36.,24.0,0.,24.0,0.,24.0,0.,24.0
1981-08-28 21:48:10.970 ,5,1,0.,24.0,0.,24.0,0.,24.0,0.,24.0
1981-08-28 21:48:34.970 ,4,1,0.,24.0,0.,24.0,0.,24.0,0.,24.0
1981-08-28 21:49:46.970 ,0,0,0.,24.0,0.,24.0,1.,24.0,0.,24.0
1981-08-28 21:50:10.970 ,0,1,0.,24.0,0.,24.0,0.,24.0,0.,24.0
1981-08-28 21:50:34.970 ,0,1,0.,24.0,0.,24.0,0.,24.0,0.,24.0
1981-08-28 21:50:58.970 ,1,1,0.,24.0,0.,24.0,0.,24.0,0.,24.0
1981-08-28 21:51:22.970 ,2,1,0.,24.0,0.,24.0,0.,24.0,0.,24.0
1981-08-28 21:51:46.970 ,3,1,0.,24.0,0.,24.0,0.,24.0,0.,24.0
1981-08-28 21:52:10.970 ,4,1,0.,24.0,0.,24.0,1.,24.0,0.,24.0
1981-08-28 21:52:34.970 ,5,1,0.,24.0,0.,24.0,0.,24.0,0.,24.0
1981-08-28 21:52:58.970 ,6,1,0.,24.0,0.,24.0,0.,24.0,0.,24.0
1981-08-28 21:53:22.970 ,7,1,6.,24.0,0.,24.0,0.,24.0,0.,24.0
1981-08-28 21:53:46.970 ,7,1,26.,24.0,0.,24.0,1.,24.0,0.,24.0
1981-08-28 21:54:10.970 ,7,0,29.,24.0,0.,24.0,0.,24.0,0.,24.0
1981-08-28 21:54:34.970 ,6,1,15.,24.0,0.,24.0,1.,24.0,0.,24.0
1981-08-28 21:54:58.970 ,6,0,0.,24.0,0.,24.0,0.,24.0,0.,24.0
1981-08-28 21:55:22.970 ,5,1,1.,24.0,0.,24.0,0.,24.0,0.,24.0
1981-08-28 21:55:46.970 ,5,0,0.,24.0,0.,24.0,0.,24.0,0.,24.0
1981-08-28 21:56:10.970 ,4,1,0.,24.0,0.,24.0,1.,24.0,0.,24.0
1981-08-28 21:56:34.970 ,4,0,0.,24.0,0.,24.0,0.,24.0,0.,24.0
1981-08-28 21:56:58.970 ,3,1,0.,24.0,0.,24.0,0.,24.0,0.,24.0
1981-08-28 21:57:22.970 ,3,0,0.,24.0,0.,24.0,0.,24.0,0.,24.0
1981-08-28 21:57:46.970 ,2,1,0.,24.0,0.,24.0,0.,24.0,0.,24.0
1981-08-28 21:58:10.970 ,2,0,0.,24.0,0.,24.0,0.,24.0,0.,24.0
1981-08-28 21:58:34.970 ,1,1,0.,24.0,0.,24.0,0.,24.0,0.,24.0
1981-08-28 21:58:58.970 ,1,0,0.,24.0,0.,24.0,0.,24.0,0.,24.0
1981-08-28 21:59:22.970 ,0,1,0.,24.0,0.,24.0,0.,24.0,0.,24.0
1981-08-28 21:59:46.970 ,0,0,0.,24.0,0.,24.0,0.,24.0,0.,24.0
1981-08-28 22:00:10.970 ,0,1,0.,24.0,0.,24.0,0.,24.0,0.,24.0
1981-08-28 22:00:34.970 ,0,0,0.,24.0,0.,24.0,1.,24.0,0.,24.0
1981-08-28 22:00:58.970 ,1,1,0.,24.0,0.,24.0,1.,24.0,0.,24.0
1981-08-28 22:01:22.970 ,1,0,0.,24.0,0.,24.0,0.,24.0,0.,24.0
1981-08-28 22:01:46.970 ,2,1,0.,24.0,0.,24.0,0.,24.0,0.,24.0
1981-08-28 22:02:10.970 ,2,0,0.,24.0,0.,24.0,2.,24.0,0.,24.0
1981-08-28 22:02:34.970 ,3,1,1.,24.0,0.,24.0,1.,24.0,0.,24.0
1981-08-28 22:02:58.970 ,3,0,0.,24.0,0.,24.0,1.,24.0,0.,24.0
1981-08-28 22:03:22.970 ,4,1,0.,24.0,0.,24.0,0.,24.0,0.,24.0
1981-08-28 22:03:46.970 ,4,0,0.,24.0,0.,24.0,1.,24.0,0.,24.0
1981-08-28 22:04:10.970 ,5,1,0.,24.0,0.,24.0,0.,24.0,0.,24.0
1981-08-28 22:04:34.970 ,5,0,0.,24.0,0.,24.0,0.,24.0,0.,24.0
1981-08-28 22:04:58.970 ,6,1,0.,24.0,0.,24.0,1.,24.0,0.,24.0
1981-08-28 22:05:22.970 ,6,0,0.,24.0,0.,24.0,1.,24.0,0.,24.0
1981-08-28 22:05:46.970 ,7,1,5.,24.0,0.,24.0,0.,24.0,0.,24.0
1981-08-28 22:06:10.970 ,7,0,32.,24.0,0.,24.0,0.,24.0,0.,24.0
1981-08-28 22:06:34.970 ,7,1,29.,24.0,0.,24.0,0.,24.0,0.,24.0
1981-08-28 22:06:58.970 ,6,1,34.,24.0,0.,24.0,1.,24.0,0.,24.0
1981-08-28 22:07:22.970 ,5,1,0.,24.0,0.,24.0,0.,24.0,0.,24.0
1981-08-28 22:07:46.970 ,4,1,0.,24.0,0.,24.0,0.,24.0,0.,24.0
1981-08-28 22:08:10.970 ,3,1,1.,24.0,0.,24.0,1.,24.0,0.,24.0
1981-08-28 22:08:34.970 ,2,1,0.,24.0,0.,24.0,2.,24.0,0.,24.0
1981-08-28 22:09:46.970 ,0,0,0.,24.0,0.,24.0,0.,24.0,0.,24.0
1981-08-28 22:10:10.970 ,1,1,0.,24.0,0.,24.0,1.,24.0,0.,24.0
1981-08-28 22:10:34.970 ,2,1,0.,24.0,0.,24.0,1.,24.0,0.,24.0
1981-08-28 22:10:58.970 ,3,1,0.,24.0,0.,24.0,1.,24.0,0.,24.0
1981-08-28 22:11:22.970 ,4,1,0.,24.0,0.,24.0,1.,24.0,0.,24.0
1981-08-28 22:11:46.970 ,5,1,0.,24.0,0.,24.0,1.,24.0,0.,24.0
1981-08-28 22:12:10.970 ,6,1,0.,24.0,0.,24.0,0.,24.0,0.,24.0
1981-08-28 22:12:34.970 ,7,1,4.,24.0,0.,24.0,0.,24.0,0.,24.0
1981-08-28 22:12:58.970 ,7,1,29.,24.0,0.,24.0,0.,24.0,0.,24.0
1981-08-28 22:13:22.970 ,7,0,34.,24.0,0.,24.0,0.,24.0,0.,24.0
1981-08-28 22:13:46.970 ,6,1,26.,24.0,0.,24.0,0.,24.0,0.,24.0
1981-08-28 22:14:10.970 ,6,0,0.,24.0,0.,24.0,1.,24.0,0.,24.0
1981-08-28 22:14:34.970 ,5,1,0.,24.0,0.,24.0,0.,24.0,0.,24.0
1981-08-28 22:14:58.970 ,5,0,0.,24.0,0.,24.0,1.,24.0,0.,24.0
1981-08-28 22:15:22.970 ,4,1,0.,24.0,0.,24.0,1.,24.0,0.,24.0
1981-08-28 22:15:46.970 ,4,0,0.,24.0,0.,24.0,1.,24.0,0.,24.0
1981-08-28 22:16:10.970 ,3,1,0.,24.0,0.,24.0,0.,24.0,0.,24.0
1981-08-28 22:16:34.970 ,3,0,0.,24.0,0.,24.0,1.,24.0,0.,24.0
1981-08-28 22:16:58.970 ,2,1,0.,24.0,0.,24.0,1.,24.0,0.,24.0
1981-08-28 22:17:22.970 ,2,0,0.,24.0,0.,24.0,0.,24.0,0.,24.0
1981-08-28 22:17:46.970 ,1,1,0.,24.0,0.,24.0,0.,24.0,0.,24.0
1981-08-28 22:18:10.970 ,1,0,0.,24.0,0.,24.0,0.,24.0,0.,24.0
1981-08-28 22:18:34.970 ,0,1,0.,24.0,0.,24.0,0.,24.0,0.,24.0
1981-08-28 22:18:58.970 ,0,0,0.,24.0,0.,24.0,0.,24.0,0.,24.0
1981-08-28 22:19:22.970 ,0,1,0.,24.0,0.,24.0,0.,24.0,0.,24.0
1981-08-28 22:19:46.970 ,0,0,0.,24.0,0.,24.0,2.,24.0,0.,24.0
1981-08-28 22:20:10.970 ,1,1,0.,24.0,0.,24.0,0.,24.0,0.,24.0
1981-08-28 22:20:34.970 ,1,0,1.,24.0,0.,24.0,1.,24.0,0.,24.0
1981-08-28 22:20:58.970 ,2,1,1.,24.0,0.,24.0,0.,24.0,0.,24.0
1981-08-28 22:21:22.970 ,2,0,0.,24.0,0.,24.0,0.,24.0,0.,24.0
1981-08-28 22:21:46.970 ,3,1,0.,24.0,0.,24.0,0.,24.0,0.,24.0
1981-08-28 22:22:10.970 ,3,0,0.,24.0,0.,24.0,0.,24.0,0.,24.0
1981-08-28 22:22:34.970 ,4,1,0.,24.0,0.,24.0,0.,24.0,0.,24.0
1981-08-28 22:22:58.970 ,4,0,0.,24.0,0.,24.0,0.,24.0,0.,24.0
1981-08-28 22:23:22.970 ,5,1,0.,24.0,0.,24.0,0.,24.0,0.,24.0
1981-08-28 22:23:46.970 ,5,0,0.,24.0,0.,24.0,0.,24.0,0.,24.0
1981-08-28 22:24:10.970 ,6,1,0.,24.0,0.,24.0,0.,24.0,0.,24.0
1981-08-28 22:24:34.970 ,6,0,0.,24.0,0.,24.0,1.,24.0,0.,24.0
1981-08-28 22:24:58.970 ,7,1,5.,24.0,0.,24.0,1.,24.0,0.,24.0
1981-08-28 22:25:22.970 ,7,0,44.,24.0,0.,24.0,0.,24.0,0.,24.0
1981-08-28 22:26:34.970 ,0,0,0.,24.0,0.,24.0,0.,24.0,0.,24.0
1981-08-28 22:26:58.970 ,4,1,0.,24.0,0.,24.0,0.,24.0,0.,24.0
1981-08-28 22:27:22.970 ,3,1,0.,24.0,0.,24.0,2.,24.0,0.,24.0
1981-08-28 22:27:46.970 ,2,1,0.,24.0,0.,24.0,1.,24.0,0.,24.0
1981-08-28 22:28:10.970 ,1,1,0.,24.0,0.,24.0,0.,24.0,0.,24.0
1981-08-28 22:28:34.970 ,0,1,0.,24.0,0.,24.0,0.,24.0,0.,24.0
1981-08-28 22:28:58.970 ,0,1,1.,24.0,0.,24.0,0.,24.0,0.,24.0
1981-08-28 22:29:22.970 ,1,1,0.,24.0,0.,24.0,0.,24.0,0.,24.0
1981-08-28 22:29:46.970 ,2,1,0.,24.0,0.,24.0,0.,24.0,0.,24.0
1981-08-28 22:30:10.970 ,3,1,0.,24.0,0.,24.0,0.,24.0,0.,24.0
1981-08-28 22:30:34.970 ,4,1,0.,24.0,0.,24.0,0.,24.0,0.,24.0
1981-08-28 22:30:58.970 ,5,1,0.,24.0,0.,24.0,0.,24.0,0.,24.0
1981-08-28 22:31:22.970 ,6,1,1.,24.0,0.,24.0,0.,24.0,0.,24.0
1981-08-28 22:31:46.970 ,7,1,11.,24.0,0.,24.0,0.,24.0,0.,24.0
1981-08-28 22:32:10.970 ,7,1,26.,24.0,0.,24.0,0.,24.0,0.,24.0
1981-08-28 22:32:34.970 ,7,0,27.,24.0,0.,24.0,0.,24.0,0.,24.0
1981-08-28 22:32:58.970 ,6,1,18.,24.0,0.,24.0,0.,24.0,0.,24.0
1981-08-28 22:33:22.970 ,6,0,1.,24.0,0.,24.0,0.,24.0,0.,24.0
1981-08-28 22:33:46.970 ,5,1,0.,24.0,0.,24.0,0.,24.0,0.,24.0
1981-08-28 22:34:10.970 ,5,0,0.,24.0,0.,24.0,0.,24.0,0.,24.0
1981-08-28 22:34:34.970 ,4,1,0.,24.0,0.,24.0,0.,24.0,0.,24.0
1981-08-28 22:34:58.970 ,4,0,0.,24.0,0.,24.0,0.,24.0,0.,24.0
1981-08-28 22:35:22.970 ,3,1,0.,24.0,0.,24.0,1.,24.0,0.,24.0
1981-08-28 22:35:46.970 ,3,0,0.,24.0,0.,24.0,0.,24.0,0.,24.0
1981-08-28 22:36:10.970 ,2,1,0.,24.0,1.,24.0,0.,24.0,0.,24.0
1981-08-28 22:36:34.970 ,2,0,0.,24.0,0.,24.0,1.,24.0,0.,24.0
1981-08-28 22:36:58.970 ,1,1,0.,24.0,0.,24.0,0.,24.0,0.,24.0
1981-08-28 22:37:22.970 ,1,0,0.,24.0,0.,24.0,0.,24.0,0.,24.0
1981-08-28 22:37:46.970 ,0,1,0.,24.0,1.,24.0,1.,24.0,0.,24.0
1981-08-28 22:38:10.970 ,0,0,0.,24.0,0.,24.0,0.,24.0,0.,24.0
1981-08-28 22:38:34.970 ,0,1,0.,24.0,0.,24.0,2.,24.0,0.,24.0
1981-08-28 22:38:58.970 ,0,0,0.,24.0,0.,24.0,0.,24.0,0.,24.0
1981-08-28 22:39:22.970 ,1,1,0.,24.0,0.,24.0,0.,24.0,0.,24.0
1981-08-28 22:39:46.970 ,1,0,0.,24.0,0.,24.0,0.,24.0,0.,24.0
1981-08-28 22:40:10.970 ,2,1,1.,24.0,0.,24.0,0.,24.0,0.,24.0
1981-08-28 22:40:34.970 ,2,0,0.,24.0,0.,24.0,0.,24.0,0.,24.0
1981-08-28 22:40:58.970 ,3,1,0.,24.0,0.,24.0,0.,24.0,0.,24.0
1981-08-28 22:41:22.970 ,3,0,0.,24.0,0.,24.0,0.,24.0,0.,24.0
1981-08-28 22:41:46.970 ,4,1,0.,24.0,0.,24.0,0.,24.0,0.,24.0
1981-08-28 22:42:10.970 ,4,0,0.,24.0,0.,24.0,0.,24.0,0.,24.0
1981-08-28 22:42:34.970 ,5,1,0.,24.0,0.,24.0,0.,24.0,0.,24.0
1981-08-28 22:42:58.970 ,5,0,0.,24.0,0.,24.0,1.,24.0,0.,24.0
1981-08-28 22:43:22.970 ,6,1,0.,24.0,0.,24.0,0.,24.0,0.,24.0
1981-08-28 22:43:46.970 ,6,0,0.,24.0,0.,24.0,0.,24.0,0.,24.0
1981-08-28 22:44:10.970 ,7,1,7.,24.0,0.,24.0,0.,24.0,0.,24.0
1981-08-28 22:44:34.970 ,7,0,32.,24.0,0.,24.0,0.,24.0,0.,24.0
1981-08-28 22:44:58.970 ,7,1,34.,24.0,0.,24.0,2.,24.0,0.,24.0
1981-08-28 22:45:22.970 ,6,1,20.,24.0,0.,24.0,0.,24.0,0.,24.0
1981-08-28 22:45:46.970 ,5,1,0.,24.0,0.,24.0,0.,24.0,0.,24.0
1981-08-28 22:46:10.970 ,4,1,0.,24.0,0.,24.0,0.,24.0,0.,24.0
1981-08-28 22:46:34.970 ,3,1,0.,24.0,0.,24.0,1.,24.0,0.,24.0
1981-08-28 22:46:58.970 ,2,1,0.,24.0,0.,24.0,0.,24.0,0.,24.0
1981-08-28 22:47:22.970 ,1,1,0.,24.0,0.,24.0,0.,24.0,0.,24.0
1981-08-28 22:47:46.970 ,0,1,0.,24.0,0.,24.0,0.,24.0,0.,24.0
1981-08-28 22:48:10.970 ,0,1,0.,24.0,0.,24.0,1.,24.0,0.,24.0
1981-08-28 22:48:34.970 ,1,1,0.,24.0,0.,24.0,1.,24.0,0.,24.0
1981-08-28 22:48:58.970 ,2,1,0.,24.0,0.,24.0,1.,24.0,0.,24.0
1981-08-28 22:49:22.970 ,3,1,0.,24.0,0.,24.0,0.,24.0,0.,24.0
1981-08-28 22:49:46.970 ,4,1,0.,24.0,0.,24.0,0.,24.0,0.,24.0
1981-08-28 22:50:10.970 ,5,1,0.,24.0,0.,24.0,0.,24.0,0.,24.0
1981-08-28 22:50:34.970 ,6,1,0.,24.0,0.,24.0,0.,24.0,0.,24.0
1981-08-28 22:50:58.970 ,7,1,13.,24.0,0.,24.0,0.,24.0,0.,24.0
1981-08-28 22:51:22.970 ,7,1,31.,24.0,0.,24.0,1.,24.0,0.,24.0
1981-08-28 22:51:46.970 ,7,0,39.,24.0,0.,24.0,0.,24.0,0.,24.0
1981-08-28 22:52:10.970 ,6,1,18.,24.0,0.,24.0,0.,24.0,0.,24.0
1981-08-28 22:52:34.970 ,6,0,0.,24.0,0.,24.0,0.,24.0,0.,24.0
1981-08-28 22:52:58.970 ,5,1,0.,24.0,0.,24.0,0.,24.0,0.,24.0
1981-08-28 22:53:22.970 ,5,0,0.,24.0,0.,24.0,1.,24.0,0.,24.0
1981-08-28 22:53:46.970 ,4,1,0.,24.0,0.,24.0,0.,24.0,0.,24.0
1981-08-28 22:54:10.970 ,4,0,0.,24.0,0.,24.0,0.,24.0,0.,24.0
1981-08-28 22:54:34.970 ,3,1,0.,24.0,0.,24.0,1.,24.0,0.,24.0
1981-08-28 22:54:58.970 ,3,0,0.,24.0,0.,24.0,0.,24.0,0.,24.0
1981-08-28 22:55:22.970 ,2,1,0.,24.0,0.,24.0,1.,24.0,0.,24.0
1981-08-28 22:55:46.970 ,2,0,0.,24.0,0.,24.0,0.,24.0,0.,24.0
1981-08-28 22:56:10.970 ,1,1,0.,24.0,0.,24.0,0.,24.0,0.,24.0
1981-08-28 22:56:34.970 ,1,0,0.,24.0,0.,24.0,0.,24.0,0.,24.0
1981-08-28 22:56:58.970 ,0,1,0.,24.0,0.,24.0,0.,24.0,0.,24.0
1981-08-28 22:57:22.970 ,0,0,0.,24.0,0.,24.0,0.,24.0,0.,24.0
1981-08-28 22:57:46.970 ,0,1,0.,24.0,0.,24.0,0.,24.0,0.,24.0
1981-08-28 22:58:10.970 ,0,0,0.,24.0,0.,24.0,1.,24.0,0.,24.0
1981-08-28 22:58:34.970 ,1,1,0.,24.0,0.,24.0,0.,24.0,0.,24.0
1981-08-28 22:58:58.970 ,1,0,0.,24.0,0.,24.0,1.,24.0,0.,24.0
1981-08-28 22:59:22.970 ,2,1,0.,24.0,0.,24.0,0.,24.0,0.,24.0
1981-08-28 22:59:46.970 ,2,0,0.,24.0,0.,24.0,0.,24.0,0.,24.0
1981-08-28 23:00:10.970 ,3,1,0.,24.0,0.,24.0,0.,24.0,0.,24.0
1981-08-28 23:00:34.970 ,3,0,0.,24.0,0.,24.0,1.,24.0,0.,24.0
1981-08-28 23:00:58.970 ,4,1,0.,24.0,0.,24.0,0.,24.0,0.,24.0
1981-08-28 23:01:22.970 ,4,0,0.,24.0,0.,24.0,0.,24.0,0.,24.0
1981-08-28 23:01:46.970 ,5,1,0.,24.0,0.,24.0,0.,24.0,0.,24.0
1981-08-28 23:02:10.970 ,5,0,0.,24.0,0.,24.0,1.,24.0,0.,24.0
1981-08-28 23:02:34.970 ,6,1,0.,24.0,0.,24.0,1.,24.0,0.,24.0
1981-08-28 23:02:58.970 ,6,0,0.,24.0,0.,24.0,0.,24.0,0.,24.0
1981-08-28 23:03:22.970 ,7,1,8.,24.0,0.,24.0,1.,24.0,0.,24.0
1981-08-28 23:03:46.970 ,7,0,33.,24.0,0.,24.0,1.,24.0,0.,24.0
1981-08-28 23:04:10.970 ,7,1,33.,24.0,2.,24.0,1.,24.0,0.,24.0
1981-08-28 23:04:34.970 ,6,1,22.,24.0,0.,24.0,0.,24.0,0.,24.0
1981-08-28 23:04:58.970 ,5,1,0.,24.0,0.,24.0,1.,24.0,0.,24.0
1981-08-28 23:05:22.970 ,4,1,0.,24.0,0.,24.0,0.,24.0,0.,24.0
1981-08-28 23:05:46.970 ,3,1,0.,24.0,1.,24.0,0.,24.0,0.,24.0
1981-08-28 23:06:10.970 ,2,1,0.,24.0,0.,24.0,0.,24.0,0.,24.0
1981-08-28 23:06:34.970 ,1,1,0.,24.0,0.,24.0,0.,24.0,0.,24.0
1981-08-28 23:06:58.970 ,0,1,0.,24.0,0.,24.0,0.,24.0,0.,24.0
1981-08-28 23:07:22.970 ,0,1,0.,24.0,0.,24.0,0.,24.0,0.,24.0
1981-08-28 23:07:46.970 ,1,1,0.,24.0,0.,24.0,1.,24.0,0.,24.0
1981-08-28 23:08:10.970 ,2,1,0.,24.0,0.,24.0,0.,24.0,0.,24.0
1981-08-28 23:08:34.970 ,3,1,0.,24.0,0.,24.0,0.,24.0,0.,24.0
1981-08-28 23:08:58.970 ,4,1,0.,24.0,0.,24.0,0.,24.0,0.,24.0
1981-08-28 23:09:22.970 ,5,1,0.,24.0,0.,24.0,0.,24.0,0.,24.0
1981-08-28 23:09:46.970 ,6,1,0.,24.0,0.,24.0,1.,24.0,0.,24.0
1981-08-28 23:10:10.970 ,7,1,6.,24.0,0.,24.0,1.,24.0,0.,24.0
1981-08-28 23:10:34.970 ,7,1,29.,24.0,0.,24.0,0.,24.0,0.,24.0
1981-08-28 23:10:58.970 ,7,0,37.,24.0,0.,24.0,1.,24.0,0.,24.0
1981-08-28 23:11:22.970 ,6,1,20.,24.0,0.,24.0,0.,24.0,0.,24.0
1981-08-28 23:11:46.970 ,6,0,0.,24.0,0.,24.0,0.,24.0,0.,24.0
1981-08-28 23:12:10.970 ,5,1,0.,24.0,0.,24.0,0.,24.0,0.,24.0
1981-08-28 23:12:34.970 ,5,0,0.,24.0,0.,24.0,0.,24.0,0.,24.0
1981-08-28 23:12:58.970 ,4,1,0.,24.0,0.,24.0,1.,24.0,0.,24.0
1981-08-28 23:13:22.970 ,4,0,0.,24.0,0.,24.0,0.,24.0,0.,24.0
1981-08-28 23:13:46.970 ,0,0,0.,24.0,0.,24.0,0.,24.0,0.,24.0
1981-08-28 23:14:10.970 ,3,0,,0,,0,,0,,0
1981-08-28 23:14:34.970 ,2,1,,0,,0,,0,,0
1981-08-28 23:14:58.970 ,2,0,0.,24.0,0.,24.0,0.,24.0,0.,24.0
1981-08-28 23:15:22.970 ,0,0,0.,24.0,0.,24.0,0.,24.0,0.,24.0
1981-08-28 23:15:46.970 ,0,0,15.,24.0,0.,24.0,0.,24.0,0.,24.0
1981-08-28 23:16:10.970 ,0,0,0.,24.0,0.,24.0,0.,24.0,0.,24.0
1981-08-28 23:16:34.970 ,0,0,,0,,0,,0,,0
1981-08-28 23:16:58.970 ,0,1,0.,24.0,0.,24.0,0.,24.0,0.,24.0
1981-08-28 23:17:22.970 ,0,0,0.,24.0,0.,24.0,0.,24.0,0.,24.0
1981-08-28 23:17:46.970 ,0,0,0.,24.0,0.,24.0,1.,24.0,0.,24.0
1981-08-28 23:18:10.970 ,0,0,0.,24.0,0.,24.0,0.,24.0,0.,24.0
1981-08-28 23:18:34.970 ,2,1,5242880.,24.0,1344.,24.0,1.,24.0,0.,24.0
1981-08-28 23:18:58.970 ,2,0,0.,24.0,0.,24.0,0.,24.0,0.,24.0
1981-08-28 23:19:22.970 ,3,1,0.,24.0,0.,24.0,2.,24.0,0.,24.0
1981-08-28 23:19:46.970 ,3,0,0.,24.0,1.,24.0,1.,24.0,0.,24.0
1981-08-28 23:20:10.970 ,4,1,0.,24.0,0.,24.0,0.,24.0,0.,24.0
1981-08-28 23:20:34.970 ,4,0,0.,24.0,1.,24.0,1.,24.0,0.,24.0
1981-08-28 23:20:58.970 ,5,1,0.,24.0,0.,24.0,0.,24.0,0.,24.0
1981-08-28 23:21:22.970 ,5,0,0.,24.0,0.,24.0,0.,24.0,0.,24.0
1981-08-28 23:21:46.970 ,6,1,0.,24.0,0.,24.0,0.,24.0,0.,24.0
1981-08-28 23:22:10.970 ,6,0,0.,24.0,0.,24.0,0.,24.0,0.,24.0
1981-08-28 23:22:34.970 ,7,1,10.,24.0,0.,24.0,0.,24.0,0.,24.0
1981-08-28 23:22:58.970 ,7,0,29.,24.0,1.,24.0,0.,24.0,0.,24.0
1981-08-28 23:23:22.970 ,7,1,42.,24.0,0.,24.0,0.,24.0,0.,24.0
1981-08-28 23:23:46.970 ,6,1,33.,24.0,0.,24.0,0.,24.0,0.,24.0
1981-08-28 23:24:10.970 ,5,1,0.,24.0,0.,24.0,0.,24.0,0.,24.0
1981-08-28 23:24:34.970 ,4,1,0.,24.0,0.,24.0,0.,24.0,0.,24.0
1981-08-28 23:24:58.970 ,3,1,0.,24.0,0.,24.0,0.,24.0,0.,24.0
1981-08-28 23:25:22.970 ,2,1,0.,24.0,0.,24.0,0.,24.0,0.,24.0
1981-08-28 23:25:46.970 ,1,1,0.,24.0,0.,24.0,0.,24.0,0.,24.0
1981-08-28 23:26:10.970 ,0,1,0.,24.0,0.,24.0,0.,24.0,0.,24.0
1981-08-28 23:26:34.970 ,0,1,0.,24.0,0.,24.0,0.,24.0,0.,24.0
1981-08-28 23:26:58.970 ,1,1,0.,24.0,0.,24.0,0.,24.0,0.,24.0
1981-08-28 23:27:22.970 ,2,1,0.,24.0,0.,24.0,1.,24.0,0.,24.0
1981-08-28 23:27:46.970 ,3,1,0.,24.0,0.,24.0,0.,24.0,0.,24.0
1981-08-28 23:28:10.970 ,4,1,0.,24.0,0.,24.0,0.,24.0,0.,24.0
1981-08-28 23:28:34.970 ,5,1,0.,24.0,0.,24.0,0.,24.0,0.,24.0
1981-08-28 23:28:58.970 ,6,1,0.,24.0,0.,24.0,0.,24.0,0.,24.0
1981-08-28 23:29:22.970 ,7,1,8.,24.0,0.,24.0,0.,24.0,0.,24.0
1981-08-28 23:29:46.970 ,7,1,20.,24.0,0.,24.0,0.,24.0,0.,24.0
1981-08-28 23:30:10.970 ,7,0,32.,24.0,0.,24.0,0.,24.0,0.,24.0
1981-08-28 23:30:34.970 ,6,1,15.,24.0,0.,24.0,0.,24.0,0.,24.0
1981-08-28 23:30:58.970 ,6,0,0.,24.0,0.,24.0,0.,24.0,0.,24.0
1981-08-28 23:31:22.970 ,5,1,0.,24.0,0.,24.0,0.,24.0,0.,24.0
1981-08-28 23:31:46.970 ,5,0,0.,24.0,0.,24.0,0.,24.0,0.,24.0
1981-08-28 23:32:10.970 ,4,1,0.,24.0,0.,24.0,1.,24.0,0.,24.0
1981-08-28 23:32:34.970 ,4,0,0.,24.0,0.,24.0,0.,24.0,0.,24.0
1981-08-28 23:32:58.970 ,3,1,0.,24.0,0.,24.0,1.,24.0,0.,24.0
1981-08-28 23:33:22.970 ,3,0,0.,24.0,0.,24.0,0.,24.0,0.,24.0
1981-08-28 23:33:46.970 ,2,1,0.,24.0,0.,24.0,0.,24.0,0.,24.0
1981-08-28 23:34:10.970 ,2,0,0.,24.0,0.,24.0,0.,24.0,0.,24.0
1981-08-28 23:34:34.970 ,1,1,0.,24.0,0.,24.0,0.,24.0,0.,24.0
1981-08-28 23:34:58.970 ,1,0,0.,24.0,0.,24.0,1.,24.0,0.,24.0
1981-08-28 23:35:22.970 ,0,1,0.,24.0,1.,24.0,0.,24.0,0.,24.0
1981-08-28 23:35:46.970 ,0,0,0.,24.0,0.,24.0,0.,24.0,0.,24.0
1981-08-28 23:36:10.970 ,0,1,0.,24.0,0.,24.0,1.,24.0,0.,24.0
1981-08-28 23:36:34.970 ,0,0,0.,24.0,0.,24.0,1.,24.0,0.,24.0
1981-08-28 23:36:58.970 ,1,1,0.,24.0,0.,24.0,0.,24.0,0.,24.0